CCM75HK LFMN-LFKJ

Flight info

Callsign CCM75HK
Flight time 0h 32m
Altitude 19000
Route LONSU
Aircraft A20N/M-SDE2E3FGHIRWXY/LB1

Departure

Time 2026-04-20 18:17
Airport Nice-Côte d'Azur Airport (LFMN)

Arrival

Time 2026-04-20 18:50
Airport Ajaccio Napoléon Bonaparte airport (LFKJ)
Time Latitude Longitude Altitude Speed Heading
2026-04-20 17:54 43.66201 7.20850 20 ft 0 kts 81°
2026-04-20 18:09 43.66199 7.20832 21 ft 2 kts 80°
2026-04-20 18:09 43.66196 7.20811 21 ft 2 kts 92°
2026-04-20 18:09 43.66201 7.20791 21 ft 2 kts 121°
2026-04-20 18:10 43.66211 7.20776 21 ft 2 kts 148°
2026-04-20 18:10 43.66221 7.20770 21 ft 0 kts 168°
2026-04-20 18:10 43.66228 7.20768 21 ft 0 kts 171°
2026-04-20 18:11 43.66227 7.20769 20 ft 0 kts 171°
2026-04-20 18:12 43.66221 7.20770 20 ft 1 kts 170°
2026-04-20 18:12 43.66203 7.20774 20 ft 3 kts 170°
2026-04-20 18:12 43.66172 7.20782 21 ft 5 kts 170°
2026-04-20 18:12 43.66127 7.20792 20 ft 7 kts 170°
2026-04-20 18:13 43.66070 7.20805 20 ft 9 kts 171°
2026-04-20 18:13 43.66000 7.20819 20 ft 10 kts 171°
2026-04-20 18:13 43.65920 7.20838 21 ft 12 kts 170°
2026-04-20 18:13 43.65832 7.20859 21 ft 13 kts 170°
2026-04-20 18:14 43.65734 7.20881 21 ft 14 kts 172°
2026-04-20 18:14 43.65629 7.20904 20 ft 15 kts 170°
2026-04-20 18:14 43.65518 7.20931 21 ft 16 kts 170°
2026-04-20 18:14 43.65403 7.20956 21 ft 17 kts 171°
2026-04-20 18:15 43.65300 7.20887 21 ft 17 kts 224°
2026-04-20 18:15 43.65212 7.20767 21 ft 18 kts 225°
2026-04-20 18:15 43.65123 7.20645 20 ft 18 kts 225°
2026-04-20 18:15 43.65031 7.20517 20 ft 18 kts 225°
2026-04-20 18:16 43.64936 7.20388 21 ft 19 kts 224°
2026-04-20 18:16 43.64836 7.20268 21 ft 18 kts 189°
2026-04-20 18:16 43.64778 7.20388 20 ft 14 kts 64°
2026-04-20 18:16 43.64829 7.20463 21 ft 10 kts 44°
2026-04-20 18:17 43.64991 7.20685 21 ft 68 kts 46°
2026-04-20 18:17 43.65493 7.21378 21 ft 135 kts 44°
2026-04-20 18:17 43.66254 7.22419 313 ft 162 kts 44°
2026-04-20 18:17 43.66999 7.23635 854 ft 172 kts 64°
2026-04-20 18:18 43.67176 7.25266 1451 ft 181 kts 101°
2026-04-20 18:18 43.66503 7.26700 2055 ft 187 kts 142°
2026-04-20 18:18 43.65372 7.27703 2554 ft 201 kts 148°
2026-04-20 18:18 43.64166 7.28809 3033 ft 217 kts 144°
2026-04-20 18:19 43.62922 7.30173 3499 ft 237 kts 140°
2026-04-20 18:19 43.61712 7.31681 4378 ft 238 kts 137°
2026-04-20 18:19 43.60508 7.33224 5219 ft 240 kts 144°
2026-04-20 18:19 43.58995 7.34077 5952 ft 241 kts 181°
2026-04-20 18:20 43.57364 7.33876 6771 ft 241 kts 190°
2026-04-20 18:20 43.55713 7.33552 7568 ft 244 kts 190°
2026-04-20 18:20 43.54025 7.33240 8370 ft 247 kts 190°
2026-04-20 18:20 43.52328 7.32948 9160 ft 249 kts 189°
2026-04-20 18:21 43.50603 7.32660 9867 ft 255 kts 189°
2026-04-20 18:21 43.48810 7.32360 10298 ft 272 kts 189°
2026-04-20 18:21 43.46873 7.32040 10700 ft 290 kts 189°
2026-04-20 18:21 43.44805 7.31704 11084 ft 308 kts 189°
2026-04-20 18:22 43.42616 7.31351 11443 ft 327 kts 189°
2026-04-20 18:22 43.40302 7.30985 11773 ft 345 kts 188°
2026-04-20 18:22 43.37878 7.30602 12078 ft 362 kts 188°
2026-04-20 18:22 43.35287 7.30191 12377 ft 379 kts 188°
2026-04-20 18:23 43.32641 7.29774 12649 ft 395 kts 188°
2026-04-20 18:23 43.29827 7.29885 12990 ft 411 kts 169°
2026-04-20 18:23 43.27171 7.31369 13604 ft 419 kts 148°
2026-04-20 18:23 43.25013 7.34073 14266 ft 423 kts 130°
2026-04-20 18:24 43.23168 7.37232 14864 ft 428 kts 128°
2026-04-20 18:24 43.21340 7.40476 15376 ft 433 kts 128°
2026-04-20 18:24 43.19465 7.43771 15917 ft 438 kts 129°
2026-04-20 18:24 43.17575 7.47032 16452 ft 442 kts 129°
2026-04-20 18:25 43.15640 7.50328 16977 ft 446 kts 129°
2026-04-20 18:25 43.13672 7.53660 17486 ft 450 kts 130°
2026-04-20 18:25 43.11841 7.57107 17960 ft 455 kts 121°
2026-04-20 18:25 43.10442 7.61027 18438 ft 460 kts 110°
2026-04-20 18:26 43.09588 7.65265 18813 ft 463 kts 101°
2026-04-20 18:26 43.09054 7.69583 18892 ft 463 kts 98°
2026-04-20 18:26 43.08552 7.73980 18897 ft 463 kts 102°
2026-04-20 18:26 43.07426 7.78021 18893 ft 462 kts 122°
2026-04-20 18:27 43.05345 7.81331 18906 ft 457 kts 143°
2026-04-20 18:27 43.02642 7.83479 18911 ft 450 kts 163°
2026-04-20 18:27 42.99628 7.84325 18911 ft 441 kts 182°
2026-04-20 18:27 42.96640 7.83790 18911 ft 432 kts 201°
2026-04-20 18:28 42.93800 7.82498 18910 ft 433 kts 199°
2026-04-20 18:28 42.90778 7.82102 18894 ft 443 kts 178°
2026-04-20 18:28 42.87990 7.83112 18899 ft 451 kts 158°
2026-04-20 18:28 42.86506 7.84284 18903 ft 455 kts 146°
2026-04-20 18:29 42.83681 7.88803 18909 ft 461 kts 117°
2026-04-20 18:29 42.82554 7.92857 18923 ft 462 kts 109°
2026-04-20 18:29 42.81209 7.96809 18903 ft 460 kts 122°
2026-04-20 18:29 42.79221 8.00181 18907 ft 458 kts 137°
2026-04-20 18:30 42.76780 8.02960 18909 ft 456 kts 147°
2026-04-20 18:30 42.74137 8.05251 18910 ft 453 kts 153°
2026-04-20 18:30 42.71366 8.07316 18910 ft 453 kts 154°
2026-04-20 18:30 42.68623 8.09319 18909 ft 453 kts 154°
2026-04-20 18:31 42.65836 8.11368 18909 ft 453 kts 154°
2026-04-20 18:31 42.63070 8.13424 18909 ft 454 kts 154°
2026-04-20 18:31 42.60299 8.15498 18909 ft 455 kts 153°
2026-04-20 18:31 42.57539 8.17575 18909 ft 455 kts 153°
2026-04-20 18:32 42.54783 8.19653 18909 ft 456 kts 153°
2026-04-20 18:32 42.52025 8.21731 18909 ft 456 kts 153°
2026-04-20 18:32 42.49256 8.23817 18909 ft 456 kts 153°
2026-04-20 18:32 42.46480 8.25908 18909 ft 455 kts 153°
2026-04-20 18:33 42.43720 8.27985 18420 ft 456 kts 153°
2026-04-20 18:33 42.40974 8.30050 17783 ft 452 kts 153°
2026-04-20 18:33 42.38262 8.32089 17175 ft 447 kts 153°
2026-04-20 18:33 42.35570 8.34112 16577 ft 442 kts 153°
2026-04-20 18:34 42.32917 8.36104 15990 ft 437 kts 153°
2026-04-20 18:34 42.30286 8.38077 15403 ft 433 kts 153°
2026-04-20 18:34 42.27642 8.40055 14809 ft 429 kts 153°
2026-04-20 18:34 42.25076 8.41971 14232 ft 424 kts 153°
2026-04-20 18:35 42.22385 8.43544 13643 ft 416 kts 166°
2026-04-20 18:35 42.19626 8.44247 13100 ft 407 kts 178°
2026-04-20 18:35 42.16828 8.44221 12549 ft 400 kts 185°
2026-04-20 18:35 42.14042 8.43991 11987 ft 396 kts 186°
2026-04-20 18:36 42.11317 8.43747 11430 ft 393 kts 186°
2026-04-20 18:36 42.08621 8.43518 10888 ft 389 kts 186°
2026-04-20 18:36 42.05981 8.43310 10663 ft 375 kts 186°
2026-04-20 18:36 42.03414 8.43118 10492 ft 361 kts 186°
2026-04-20 18:37 42.00988 8.42938 10346 ft 347 kts 186°
2026-04-20 18:37 41.98615 8.42762 10223 ft 333 kts 186°
2026-04-20 18:37 41.96359 8.42593 10127 ft 319 kts 186°
2026-04-20 18:37 41.94190 8.42431 10049 ft 305 kts 186°
2026-04-20 18:38 41.92142 8.42274 9989 ft 291 kts 186°
2026-04-20 18:38 41.90133 8.42120 9721 ft 287 kts 186°
2026-04-20 18:38 41.88155 8.41967 9407 ft 284 kts 186°
2026-04-20 18:38 41.86209 8.41819 9102 ft 281 kts 186°
2026-04-20 18:39 41.84260 8.41673 8797 ft 279 kts 186°
2026-04-20 18:39 41.82343 8.41531 8496 ft 276 kts 186°
2026-04-20 18:39 41.80423 8.41387 8194 ft 274 kts 186°
2026-04-20 18:39 41.78540 8.41248 7899 ft 271 kts 186°
2026-04-20 18:40 41.76668 8.41109 7607 ft 269 kts 186°
2026-04-20 18:40 41.74814 8.40972 7318 ft 267 kts 186°
2026-04-20 18:40 41.72982 8.40837 7026 ft 265 kts 186°
2026-04-20 18:40 41.71140 8.40700 6733 ft 263 kts 186°
2026-04-20 18:41 41.69338 8.40565 6443 ft 261 kts 186°
2026-04-20 18:41 41.67541 8.40431 6156 ft 259 kts 185°
2026-04-20 18:41 41.65747 8.40710 5829 ft 264 kts 161°
2026-04-20 18:41 41.64243 8.42082 5521 ft 268 kts 131°
2026-04-20 18:42 41.63237 8.44193 5248 ft 268 kts 120°
2026-04-20 18:42 41.62429 8.46413 4938 ft 268 kts 108°
2026-04-20 18:42 41.62288 8.48892 4630 ft 267 kts 78°
2026-04-20 18:42 41.63021 8.51105 4355 ft 263 kts 55°
2026-04-20 18:43 41.64081 8.53078 4310 ft 259 kts 51°
2026-04-20 18:43 41.65170 8.55018 4279 ft 262 kts 52°
2026-04-20 18:43 41.66241 8.56991 4240 ft 261 kts 52°
2026-04-20 18:43 41.67309 8.58949 4028 ft 262 kts 52°
2026-04-20 18:44 41.68386 8.60908 3757 ft 260 kts 52°
2026-04-20 18:44 41.69453 8.62838 3532 ft 256 kts 53°
2026-04-20 18:44 41.70493 8.64735 3326 ft 250 kts 52°
2026-04-20 18:44 41.71549 8.66530 3129 ft 243 kts 46°
2026-04-20 18:45 41.72797 8.67962 3039 ft 230 kts 32°
2026-04-20 18:45 41.74147 8.68975 3108 ft 217 kts 24°
2026-04-20 18:45 41.75489 8.69785 3144 ft 205 kts 22°
2026-04-20 18:45 41.76743 8.70520 3098 ft 187 kts 22°
2026-04-20 18:46 41.77895 8.71211 2868 ft 177 kts 22°
2026-04-20 18:46 41.78989 8.71885 2621 ft 167 kts 22°
2026-04-20 18:46 41.80018 8.72525 2410 ft 163 kts 24°
2026-04-20 18:46 41.81010 8.73147 2186 ft 151 kts 23°
2026-04-20 18:47 41.81953 8.73735 1994 ft 151 kts 24°
2026-04-20 18:47 41.82900 8.74326 1807 ft 150 kts 24°
2026-04-20 18:47 41.83840 8.74914 1610 ft 148 kts 23°
2026-04-20 18:47 41.84771 8.75493 1422 ft 145 kts 24°
2026-04-20 18:48 41.85675 8.76057 1226 ft 143 kts 25°
2026-04-20 18:48 41.86576 8.76618 1030 ft 142 kts 24°
2026-04-20 18:48 41.87466 8.77173 839 ft 141 kts 24°
2026-04-20 18:48 41.88356 8.77723 679 ft 141 kts 24°
2026-04-20 18:49 41.89255 8.78275 486 ft 141 kts 25°
2026-04-20 18:49 41.90138 8.78839 338 ft 141 kts 25°
2026-04-20 18:49 41.91024 8.79391 119 ft 139 kts 25°
2026-04-20 18:49 41.91870 8.79918 28 ft 124 kts 24°
2026-04-20 18:50 41.92504 8.80315 28 ft 76 kts 26°
2026-04-20 18:50 41.92852 8.80534 28 ft 35 kts 22°
2026-04-20 18:50 41.92957 8.80492 28 ft 16 kts 290°
2026-04-20 18:50 41.92935 8.80371 28 ft 14 kts 228°
2026-04-20 18:51 41.92868 8.80274 28 ft 14 kts 226°
2026-04-20 18:51 41.92795 8.80186 27 ft 14 kts 219°
2026-04-20 18:51 41.92710 8.80110 28 ft 14 kts 205°
2026-04-20 18:51 41.92614 8.80053 28 ft 15 kts 204°
2026-04-20 18:52 41.92514 8.79991 27 ft 16 kts 207°
2026-04-20 18:52 41.92413 8.79926 28 ft 16 kts 206°
2026-04-20 18:52 41.92310 8.79862 28 ft 15 kts 204°
2026-04-20 18:52 41.92212 8.79803 28 ft 15 kts 205°
2026-04-20 18:53 41.92110 8.79737 28 ft 16 kts 205°
2026-04-20 18:53 41.92013 8.79677 28 ft 13 kts 205°
2026-04-20 18:53 41.91991 8.79646 28 ft 4 kts 278°
2026-04-20 18:53 41.92010 8.79613 28 ft 4 kts 331°
2026-04-20 18:54 41.92021 8.79608 28 ft 0 kts 342°